Hourly Data Report for October 31, 2014

All times are specified in Local Standard Time (LST). Add 1 hour to adjust for Daylight Saving Time where and when it is observed.

POND INLET A
NUNAVUT

72°41'22.000" N
77°58'08.000" W
61.60 m
2403206
71095
YIO

Download Data

Hourly Data (October 2014)
Hourly Data Report for October 31, 2014
Temp Definition
°C
Dew Point Temp Definition
°C
Rel Hum Definition
%
Wind Dir Definition
10's deg

Wind Spd Definition
km/h
Visibility Definition
km
Stn Press Definition
kPa
Hmdx Definition


Wind Chill Definition


Weather Definition


TIME
00:00 Legend Double Dagger -11.4 -12.1 94 LegendMM 4 16.1 101.14   -14 LegendNANA
01:00 Legend Double Dagger -10.9 -12.8 86 16 9 16.1 101.17   -16 LegendNANA
02:00 Legend Double Dagger -11.0 -12.8 87 16 11 16.1 101.19   -17 LegendNANA
03:00 Legend Double Dagger -11.0 -12.9 86 15 13 16.1 101.25   -17 Snow
04:00 Legend Double Dagger -10.9 -12.5 88 20 9 16.1 101.29   -16 LegendNANA
05:00 Legend Double Dagger -10.5 -12.0 89 17 9 16.1 101.31   -15 Snow
06:00 Legend Double Dagger -10.3 -11.8 89 17 9 16.1 101.32   -15 Snow
07:00 Legend Double Dagger -10.3 -11.6 90 19 5 16.1 101.35   -13 Snow
08:00 Legend Double Dagger -10.0 -11.4 90 20 5 16.1 101.37   -13 Snow
09:00 Legend Double Dagger -10.5 -12.3 87 16 15 16.1 101.38   -17 Snow
10:00 Legend Double Dagger -10.6 -12.4 87 19 5 16.1 101.39   -14 Snow
11:00 Legend Double Dagger -10.8 -12.1 90 15 11 16.1 101.39   -17 Snow
12:00 Legend Double Dagger -12.0 -13.3 90 14 13 16.1 101.40   -19 LegendNANA
13:00 Legend Double Dagger -13.4 -14.4 92 15 13 16.1 101.40   -20 LegendNANA
14:00 Legend Double Dagger -12.0 -12.8 94 15 17 6.4 101.46   -20 Snow
15:00 Legend Double Dagger -11.4 -12.4 92 17 8 16.1 101.50   -16 LegendNANA
16:00 Legend Double Dagger -11.6 -12.7 92 16 9 16.1 101.55   -17 LegendNANA
17:00 Legend Double Dagger -12.0 -13.1 91 15 15 16.1 101.57   -19 Snow
18:00 Legend Double Dagger -12.4 -13.6 91 15 17 16.1 101.58   -20 Snow
19:00 Legend Double Dagger -15.4 -16.7 90 11 8 16.1 101.56   -21 LegendNANA
20:00 Legend Double Dagger -15.9 -17.2 90 14 17 16.1 101.54   -25 LegendNANA
21:00 Legend Double Dagger -14.5 -16.7 84 15 17 16.1 101.54   -23 Snow
22:00 Legend Double Dagger -12.3 -13.9 88 14 11 16.1 101.54   -18 LegendNANA
23:00 Legend Double Dagger -12.8 -14.3 89 16 15 16.1 101.55   -20 LegendNANA

Notes on Data Quality.

Legend

  • E = Estimated
  • M = Missing
  • NA = Not Available
  • ‡ = Partner data that is not subject to review by the National Climate Archives
Date modified: